Flag for Italy Weather past 2 weeks in Cagliari, Italy

Now
88 °F

Sunny.


Feels Like: 89 °F
Forecast: 66 / 89 °F
Wind: 16 mph from Southeast

Location: Cagliari / Elmas

Current Time: Aug 30, 2015 at 2:57:43 PM

Latest Report: Aug 30, 2015 at 2:20 PM


Visibility: 10 mi

Pressure: 30.09 "Hg

Humidity: 46%

Dew point: 64 °F

Location of CagliariLocation

Historic Weather in Cagliari — Graph

°F

Cagliari temperature yesterday

Maximum temperature yesterday: 86 °F (at 11:20 AM)
Minimum temperature yesterday: 73 °F (at 2:20 AM)
Average temperature yesterday: 80 °F

Past Weeks' High & Low Weather Summary

 TemperatureHumidityPressure
High93 °F (Aug 24, 2:20 PM)94% (Aug 18, 6:50 AM)30.12 "Hg (Aug 18, 6:50 AM)
Low64 °F (Aug 17, 3:50 AM)24% (Aug 19, 2:20 PM)29.80 "Hg (Aug 15, 3:20 PM)
Average78 °F67%29.99 "Hg
* Reported Aug 15 1:20 PM — Aug 30 1:20 PM, Cagliari, Weather by CustomWeather, © 2015

Note: Actual official high and low records may vary slightly from our data, if they occured in-between our weather recording intervals... More about our weather records

Advertising

Cagliari weather history for previous 24 hours

 ConditionsComfort  
Time TempWeatherWind HumidityBarometerVisibility
1:20 PM
Sun, Aug 30
88 °FSunny.14 mph59%30.12 "Hg10 mi
12:50 PM86 °FSunny.15 mph59%30.12 "Hg10 mi
12:20 PM86 °FPassing clouds.13 mph66%30.12 "HgN/A
11:50 AM86 °FSunny.15 mph62%30.12 "Hg10 mi
11:20 AM86 °FSunny.14 mph62%30.12 "Hg10 mi
10:50 AM84 °FSunny.13 mph66%30.12 "Hg10 mi
10:20 AM84 °FPassing clouds.10 mph66%30.12 "HgN/A
9:50 AM84 °FPassing clouds.7 mph62%30.12 "HgN/A
9:20 AM82 °FSunny.3 mph66%30.12 "Hg10 mi
8:50 AM81 °FSunny.1 mph66%30.12 "Hg10 mi
8:20 AM77 °FSunny.1 mph74%30.12 "Hg10 mi
7:50 AM73 °FSunny.3 mph78%30.12 "Hg10 mi
7:20 AM72 °FClear.3 mph83%30.09 "Hg10 mi
5:50 AM79 °FClear.10 mph84%30.09 "Hg10 mi
5:20 AM77 °FClear.10 mph89%30.09 "Hg10 mi
4:50 AM79 °FClear.13 mph84%30.09 "Hg10 mi
4:20 AM79 °FClear.13 mph84%30.09 "Hg10 mi
3:50 AM73 °FClear.3 mph89%30.09 "Hg10 mi
3:20 AM72 °FClear.3 mph88%30.09 "Hg10 mi
2:50 AM72 °FClear.3 mph88%30.09 "Hg10 mi
2:20 AM72 °FClear.3 mph88%30.09 "Hg10 mi
1:50 AM72 °FClear.2 mph83%30.12 "Hg10 mi
1:20 AM75 °FClear.2 mph78%30.12 "Hg10 mi
12:50 AM75 °FClear.3 mph78%30.12 "Hg10 mi
12:20 AM77 °FClear.3 mph83%30.12 "Hg10 mi
11:50 PM
Sat, Aug 29
79 °FClear.2 mph74%30.12 "Hg10 mi
11:20 PM79 °FClear.3 mph70%30.12 "Hg10 mi
10:50 PM79 °FClear.6 mph70%30.12 "Hg10 mi
10:20 PM77 °FClear.2 mph83%30.12 "Hg10 mi
9:50 PM79 °FPassing clouds.3 mph79%30.09 "HgN/A
9:20 PM79 °FClear.7 mph84%30.09 "Hg10 mi
8:50 PM79 °FSunny.7 mph84%30.09 "Hg10 mi
8:20 PM81 °FSunny.9 mph79%30.07 "Hg10 mi
7:50 PM81 °FSunny.12 mph79%30.07 "Hg10 mi
7:20 PM81 °FSunny.15 mph79%30.07 "Hg10 mi
6:50 PM82 °FSunny.15 mph74%30.07 "Hg10 mi
6:20 PM82 °FSunny.16 mph74%30.09 "Hg10 mi
5:50 PM82 °FSunny.16 mph74%30.09 "Hg10 mi
5:20 PM84 °FSunny.15 mph70%30.09 "Hg10 mi
4:50 PM84 °FPassing clouds.15 mph70%30.09 "HgN/A
4:20 PM84 °FPassing clouds.18 mph66%30.09 "HgN/A
3:50 PM84 °FPassing clouds.17 mph70%30.09 "HgN/A
3:20 PM84 °FPassing clouds.18 mph70%30.12 "HgN/A
2:50 PM86 °FPassing clouds.17 mph66%30.09 "HgN/A
2:20 PM86 °FPassing clouds.18 mph66%30.12 "HgN/A
Weather by CustomWeather, © 2015

See weather overviewHow to use our weather pages